Regional Weather Roundup
Issued by NWS

Home | Current Version | Previous Version | Text Only | Print | Product List | Glossary On
Versions: 1 2 3 4 5 6 7 8 9 10 11 12 13 14 15 16 17 18 19 20 21 22 23 24 25 26 27 28 29 30 31 32 33 34 35 36 37 38 39 40 41 42 43 44 45 46 47 48 49 50
000
ASUS43 KTOP 260608
RWRKS

WEATHER ROUNDUP FOR KANSAS
NATIONAL WEATHER SERVICE GOODLAND KS
100 AM CDT SUN OCT 26 2014

NOTE:  "FAIR" INDICATES FEW OR NO CLOUDS BELOW 12,000 FEET WITH NO
SIGNIFICANT WEATHER AND/OR OBSTRUCTIONS TO VISIBILITY.

KSZ001>006-013>018-027>032-041>047-260700-
NORTHWEST KANSAS

CITY           SKY/WX    TMP DP  RH WIND       PRES   REMARKS
GOODLAND       CLEAR     52  40  63 S8        29.90F
6HR MIN TEMP:  46; 6HR MAX TEMP:  68;

HAYS           CLEAR     59  50  72 SE5       29.89F
HILL CITY      CLEAR     60  49  66 E5        29.88F
6HR MIN TEMP:  60; 6HR MAX TEMP:  76;

RUSSELL        CLEAR     66  55  67 S12       29.88F
6HR MIN TEMP:  65; 6HR MAX TEMP:  72;

$$

KSZ061>065-074>080-084>089-260700-
SOUTHWEST KANSAS

CITY           SKY/WX    TMP DP  RH WIND       PRES   REMARKS
DODGE CITY     CLEAR     65  48  54 S12       29.91F
6HR MIN TEMP:  65; 6HR MAX TEMP:  78;

ELKHART          N/A     60  43  53 S8          N/A
GARDEN CITY    CLEAR     62  48  60 S8        29.90F
6HR MIN TEMP:  61; 6HR MAX TEMP:  76;

GREAT BEND     CLEAR     68  52  56 S13       29.90F
LIBERAL        CLEAR     63  46  55 S14       29.95F
PRATT          CLEAR     63  52  67 S10       29.94F
$$

KSZ066>073-081>083-090>101-260700-
SOUTHEAST KANSAS

CITY           SKY/WX    TMP DP  RH WIND       PRES   REMARKS
CHANUTE        CLEAR     63  61  93 SE7       29.96F
6HR MIN TEMP:  63; 6HR MAX TEMP:  72;

COFFEYVILLE    CLEAR     64  61  90 S5        29.95F
6HR MIN TEMP:  64; 6HR MAX TEMP:  74;

HUTCHINSON     CLEAR     64  56  75 SE7       29.92F
6HR MIN TEMP:  63; 6HR MAX TEMP:  73;

MEDICINE LODGE   N/A     66  53  63 S7        29.93F
NEWTON         CLEAR     64  55  72 S7        29.96F
PARSONS        CLEAR     67  63  87 CALM      29.97F
6HR MIN TEMP:  65; 6HR MAX TEMP:  70;

WICHITA INTL   CLEAR     63  57  81 S5        29.93F
6HR MIN TEMP:  63; 6HR MAX TEMP:  77;

WICHITA JABRA  CLEAR     64  58  80 S7        29.94F
6HR MIN TEMP:  64; 6HR MAX TEMP:  75;

WICHITA MCCONL CLEAR     67  61  82 SE7       29.94F
WINFIELD       CLEAR     70  58  65 S9        29.95F
6HR MIN TEMP:  67; 6HR MAX TEMP:  78;

$$

KSZ007>012-019>026-033>040-048>060-102>105-260700-
NORTHEAST KANSAS

CITY           SKY/WX    TMP DP  RH WIND       PRES   REMARKS
CONCORDIA      CLEAR     58  56  93 E5        29.92F
6HR MIN TEMP:  58; 6HR MAX TEMP:  72;

EMPORIA        CLEAR     64  61  90 S7        29.95S
6HR MIN TEMP:  64; 6HR MAX TEMP:  73;

LAWRENCE       CLEAR     58  55  90 E6        29.98S
6HR MIN TEMP:  58; 6HR MAX TEMP:  69;

MANHATTAN      CLEAR     63  58  83 NE3       29.93F
6HR MIN TEMP:  62; 6HR MAX TEMP:  74;

MARYSVILLE     CLEAR     63  50  63 SE10      29.95S
OLATHE IND     CLEAR     62  56  80 E3        29.99F
6HR MIN TEMP:  62; 6HR MAX TEMP:  72;

OLATHE EXE     CLEAR     63  56  78 SE6       29.99S
6HR MIN TEMP:  63; 6HR MAX TEMP:  73;

SALINA         CLEAR     62  56  80 S6        29.91F
6HR MIN TEMP:  61; 6HR MAX TEMP:  74;

TOPEKA BILLARD CLEAR     62  58  86 CALM      29.97F
6HR MIN TEMP:  61; 6HR MAX TEMP:  71;

TOPEKA FORBES  CLEAR     63  58  83 E8        29.96F
6HR MIN TEMP:  62; 6HR MAX TEMP:  71;

$$



USA.gov is the U.S. government's official web portal to all federal, state and local government web resources and services.